Location: Marion Hill
(40.7303°N, 80.2959°W)
Time: 07:16:10
(UTC+00:00)

Cosmos 2082 - Pass Details

Date: 29 October 2020
Orbit: 832 x 857 km, 71.0° (Epoch: 28 November)

Event Time Altitude Azimuth Distance (km) Brightness Sun altitude
Rises 23:17:26 0° 342° (NNW) 3,435 7.0 -11.3°
Reaches altitude 10° 23:20:03 10° 350° (N) 2,497 6.2 -11.8°
Maximum altitude 23:25:26 40° 60° (ENE) 1,240 4.1 -12.8°
Drops below altitude 10° 23:30:47 10° 129° (SE) 2,483 5.7 -13.8°
Enters shadow 23:31:47 - 133° (SE) 2,836 6.1 -14.0°
